W7KKE-3 Weather Reports


Display with metric or nautical units.
time (UTC)temp
F
wind
direction
speed
MPH
gust
MPH
rain 1hr
in
rain 24hr
in
rain mn
in
humidity
%
barometer
mb
20260831022325 65 317 7.0 13.0 0.00 0.00 0.00 70 1011.9
20260831021825 66 322 6.0 12.0 0.00 0.00 0.00 69 1011.9
20260831020825 66 338 7.0 12.0 0.00 0.00 0.00 69 1012.0
20260831020325 66 341 7.0 10.0 0.00 0.00 0.00 69 1012.1
20260831015826 66 324 5.0 11.0 0.00 0.00 0.00 68 1012.1
20260831015325 66 336 6.0 11.0 0.00 0.00 0.00 68 1012.1
20260831014825 66 317 7.0 11.0 0.00 0.00 0.00 68 1012.1
20260831014326 66 336 6.0 16.0 0.00 0.00 0.00 67 1012.1
20260831013825 66 329 10.0 16.0 0.00 0.00 0.00 67 1012.2
20260831013325 66 331 9.0 16.0 0.00 0.00 0.00 66 1012.4
20260831012826 67 337 9.0 15.0 0.00 0.00 0.00 66 1012.4
20260831012325 67 345 9.0 20.0 0.00 0.00 0.00 66 1012.4
20260831011825 67 7 8.0 20.0 0.00 0.00 0.00 67 1012.5
20260831011327 67 347 9.0 20.0 0.00 0.00 0.00 66 1012.6
20260831010825 67 331 7.0 16.0 0.00 0.00 0.00 67 1012.6
20260831010325 67 317 9.0 14.0 0.00 0.00 0.00 67 1012.7
20260831005826 67 323 8.0 19.0 0.00 0.00 0.00 67 1012.7
20260831005325 67 345 11.0 19.0 0.00 0.00 0.00 67 1012.8
20260831004825 67 316 9.0 19.0 0.00 0.00 0.00 67 1012.9
20260831004327 67 324 10.0 18.0 0.00 0.00 0.00 67 1013.0
20260831003825 67 312 10.0 22.0 0.00 0.00 0.00 67 1013.0
20260831003325 67 322 10.0 22.0 0.00 0.00 0.00 67 1013.1
20260831002826 67 320 12.0 22.0 0.00 0.00 0.00 66 1013.2
20260831002325 67 323 11.0 21.0 0.00 0.00 0.00 66 1013.3
20260831001825 67 331 11.0 20.0 0.00 0.00 0.00 66 1013.3
20260831001326 67 317 11.0 20.0 0.00 0.00 0.00 66 1013.2
20260831000825 67 331 14.0 19.0 0.00 0.00 0.00 66 1013.2
20260831000325 68 330 12.0 19.0 0.00 0.00 0.00 66 1013.3
20260830235826 67 329 11.0 19.0 0.00 0.00 0.00 66 1013.4
20260830235325 68 319 12.0 22.0 0.00 0.00 0.00 66 1013.3
20260830234825 68 316 13.0 22.0 0.00 0.00 0.00 66 1013.5
20260830234326 67 344 12.0 22.0 0.00 0.00 0.00 66 1013.5
20260830233825 67 309 12.0 20.0 0.00 0.00 0.00 66 1013.5
20260830233325 68 322 13.0 20.0 0.00 0.00 0.00 66 1013.6
20260830232826 68 322 11.0 20.0 0.00 0.00 0.00 67 1013.6
20260830232325 67 319 11.0 23.0 0.00 0.00 0.00 67 1013.7
20260830231825 67 323 10.0 23.0 0.00 0.00 0.00 67 1013.7
20260830231326 67 329 13.0 23.0 0.00 0.00 0.00 67 1013.8
20260830230825 68 308 14.0 22.0 0.00 0.00 0.00 67 1013.9
20260830230325 68 313 13.0 22.0 0.00 0.00 0.00 67 1013.9
20260830225826 68 333 15.0 24.0 0.00 0.00 0.00 67 1014.0
20260830225325 68 324 14.0 24.0 0.00 0.00 0.00 67 1014.0
20260830224825 68 309 15.0 24.0 0.00 0.00 0.00 67 1014.1
20260830224326 68 320 17.0 24.0 0.00 0.00 0.00 67 1014.2
20260830223825 68 341 13.0 24.0 0.00 0.00 0.00 67 1014.2
20260830223325 68 336 14.0 25.0 0.00 0.00 0.00 67 1014.3
20260830222826 68 319 15.0 25.0 0.00 0.00 0.00 66 1014.3
20260830222325 68 344 14.0 25.0 0.00 0.00 0.00 67 1014.4
20260830221825 68 313 13.0 24.0 0.00 0.00 0.00 67 1014.5
20260830221326 68 308 15.0 22.0 0.00 0.00 0.00 67 1014.5
20260830220825 68 326 14.0 22.0 0.00 0.00 0.00 68 1014.5
20260830220325 68 334 12.0 22.0 0.00 0.00 0.00 68 1014.6
20260830215826 68 308 11.0 21.0 0.00 0.00 0.00 69 1014.7
20260830215326 68 324 11.0 22.0 0.00 0.00 0.00 69 1014.8
20260830214825 68 333 14.0 22.0 0.00 0.00 0.00 69 1014.8
20260830214327 68 331 12.0 22.0 0.00 0.00 0.00 69 1014.9
20260830213825 68 310 14.0 22.0 0.00 0.00 0.00 69 1015.0
20260830213325 68 330 13.0 22.0 0.00 0.00 0.00 69 1014.9
20260830212826 68 306 12.0 22.0 0.00 0.00 0.00 68 1014.9
20260830212325 69 340 12.0 23.0 0.00 0.00 0.00 68 1014.9
20260830211825 68 336 12.0 23.0 0.00 0.00 0.00 69 1014.9
20260830211326 68 323 13.0 23.0 0.00 0.00 0.00 68 1014.9
20260830210826 68 331 13.0 22.0 0.00 0.00 0.00 68 1014.9
20260830210325 69 329 13.0 21.0 0.00 0.00 0.00 68 1015.0
20260830205826 69 334 12.0 21.0 0.00 0.00 0.00 68 1015.1
20260830205325 69 322 12.0 19.0 0.00 0.00 0.00 68 1015.1
20260830204825 69 322 13.0 23.0 0.00 0.00 0.00 68 1015.1
20260830204326 69 320 12.0 23.0 0.00 0.00 0.00 68 1015.2
20260830203825 69 334 13.0 23.0 0.00 0.00 0.00 68 1015.2
20260830203325 69 12 14.0 21.0 0.00 0.00 0.00 68 1015.3
20260830202826 69 322 12.0 21.0 0.00 0.00 0.00 68 1015.4
20260830202325 69 322 13.0 21.0 0.00 0.00 0.00 68 1015.5
20260830201825 69 323 13.0 21.0 0.00 0.00 0.00 68 1015.6
20260830201326 69 326 13.0 21.0 0.00 0.00 0.00 67 1015.5
20260830200825 69 312 12.0 20.0 0.00 0.00 0.00 67 1015.5
20260830200325 69 333 12.0 20.0 0.00 0.00 0.00 66 1015.5
20260830195826 69 322 14.0 20.0 0.00 0.00 0.00 65 1015.6
20260830195325 69 320 12.0 18.0 0.00 0.00 0.00 66 1015.6
20260830194825 69 331 11.0 18.0 0.00 0.00 0.00 65 1015.7
20260830194326 69 334 12.0 18.0 0.00 0.00 0.00 65 1015.8
20260830193825 69 338 12.0 18.0 0.00 0.00 0.00 66 1015.8
20260830193325 69 310 11.0 18.0 0.00 0.00 0.00 67 1015.9
20260830192325 69 326 9.0 17.0 0.00 0.00 0.00 69 1015.8
20260830191825 69 296 9.0 14.0 0.00 0.00 0.00 69 1015.9
20260830191327 68 333 9.0 17.0 0.00 0.00 0.00 69 1015.9
20260830190825 68 327 9.0 17.0 0.00 0.00 0.00 70 1016.0
20260830190325 68 336 8.0 17.0 0.00 0.00 0.00 72 1016.0
20260830185826 68 308 11.0 16.0 0.00 0.00 0.00 70 1016.1
20260830185325 68 317 9.0 14.0 0.00 0.00 0.00 70 1016.1
20260830184825 68 301 7.0 15.0 0.00 0.00 0.00 70 1016.0
20260830184326 68 336 10.0 15.0 0.00 0.00 0.00 70 1016.1
20260830183825 68 345 7.0 15.0 0.00 0.00 0.00 71 1016.2
20260830183325 68 338 10.0 13.0 0.00 0.00 0.00 69 1016.1
20260830182826 68 336 7.0 13.0 0.00 0.00 0.00 71 1016.1
20260830182325 68 324 8.0 13.0 0.00 0.00 0.00 71 1016.2
20260830181825 68 21 10.0 10.0 0.00 0.00 0.00 71 1016.2
20260830181326 68 315 5.0 10.0 0.00 0.00 0.00 71 1016.2
20260830180825 67 336 8.0 12.0 0.00 0.00 0.00 72 1016.3
20260830180325 67 320 4.0 12.0 0.00 0.00 0.00 73 1016.3
20260830175826 67 326 6.0 12.0 0.00 0.00 0.00 73 1016.3
20260830175325 67 319 8.0 9.0 0.00 0.00 0.00 73 1016.3
20260830174826 66 336 4.0 9.0 0.00 0.00 0.00 75 1016.3
20260830174326 66 341 1.0 9.0 0.00 0.00 0.00 76 1016.3
20260830173825 65 308 2.0 9.0 0.00 0.00 0.00 77 1016.4
20260830173326 65 280 5.0 7.0 0.00 0.00 0.00 78 1016.4
20260830172826 65 306 3.0 6.0 0.00 0.00 0.00 77 1016.4
20260830172325 65 292 3.0 8.0 0.00 0.00 0.00 77 1016.4
20260830171825 64 285 4.0 8.0 0.00 0.00 0.00 77 1016.5
20260830171326 64 270 3.0 8.0 0.00 0.00 0.00 77 1016.4
20260830170825 64 295 3.0 8.0 0.00 0.00 0.00 77 1016.4
20260830170325 64 295 3.0 6.0 0.00 0.00 0.00 77 1016.4
20260830165826 63 291 4.0 6.0 0.00 0.00 0.00 78 1016.4
20260830165325 63 302 4.0 5.0 0.00 0.00 0.00 79 1016.4
20260830164825 63 312 0.0 5.0 0.00 0.00 0.00 80 1016.4
20260830164326 62 298 1.0 4.0 0.00 0.00 0.00 79 1016.4
20260830163825 62 280 0.0 3.0 0.00 0.00 0.00 81 1016.5
20260830163325 61 288 2.0 3.0 0.00 0.00 0.00 83 1016.5
20260830162826 60 296 2.0 3.0 0.00 0.00 0.00 84 1016.5
20260830162325 59 288 2.0 3.0 0.00 0.00 0.00 85 1016.5
20260830161825 58 330 0.0 3.0 0.00 0.00 0.00 87 1016.5
20260830161326 58 0 1.0 1.0 0.00 0.00 0.00 88 1016.5
20260830160825 57 0 0.0 0.0 0.00 0.00 0.00 88 1016.6
20260830160325 56 0 0.0 2.0 0.00 0.00 0.00 88 1016.6
20260830155826 55 0 0.0 2.0 0.00 0.00 0.00 88 1016.6
20260830155325 55 42 0.0 2.0 0.00 0.00 0.00 88 1016.6
20260830154825 55 0 0.0 2.0 0.00 0.00 0.00 87 1016.7
20260830154326 54 134 0.0 2.0 0.00 0.00 0.00 88 1016.7
20260830153825 54 0 0.0 0.0 0.00 0.00 0.00 88 1016.7
20260830153325 54 106 0.0 5.0 0.00 0.00 0.00 87 1016.7
20260830152826 54 113 0.0 5.0 0.00 0.00 0.00 88 1016.6
20260830152325 54 117 2.0 5.0 0.00 0.00 0.00 88 1016.6
20260830151825 54 102 2.0 4.0 0.00 0.00 0.00 88 1016.6
20260830151326 54 112 2.0 5.0 0.00 0.00 0.00 88 1016.6
20260830150825 54 106 2.0 5.0 0.00 0.00 0.00 88 1016.6
20260830150325 53 105 1.0 5.0 0.00 0.00 0.00 88 1016.6
20260830145826 53 105 1.0 7.0 0.00 0.00 0.00 88 1016.6
20260830145325 53 103 3.0 7.0 0.00 0.00 0.00 88 1016.6
20260830144825 53 107 3.0 7.0 0.00 0.00 0.00 88 1016.7
20260830144326 53 93 4.0 5.0 0.00 0.00 0.00 88 1016.7
20260830143825 53 103 2.0 6.0 0.00 0.00 0.00 88 1016.6
20260830143325 53 113 2.0 6.0 0.00 0.00 0.00 88 1016.7
20260830142826 52 127 2.0 6.0 0.00 0.00 0.00 88 1016.6
20260830142325 52 119 2.0 4.0 0.00 0.00 0.00 88 1016.6
20260830141825 52 145 1.0 6.0 0.00 0.00 0.00 88 1016.6
20260830141326 52 124 1.0 6.0 0.00 0.00 0.00 88 1016.6
20260830140825 52 107 3.0 6.0 0.00 0.00 0.00 88 1016.6
20260830140325 52 119 3.0 6.0 0.00 0.00 0.00 88 1016.7
20260830135826 52 100 4.0 6.0 0.00 0.00 0.00 88 1016.7
20260830135325 52 140 3.0 6.0 0.00 0.00 0.00 88 1016.7
20260830134828 52 116 2.0 4.0 0.00 0.00 0.00 88 1016.7
20260830134326 52 110 2.0 7.0 0.00 0.00 0.00 88 1016.7
20260830133825 52 92 2.0 7.0 0.00 0.00 0.00 88 1016.7
20260830133325 52 113 4.0 7.0 0.00 0.00 0.00 88 1016.6
20260830132826 52 107 5.0 7.0 0.00 0.00 0.00 88 1016.6
20260830132325 52 116 5.0 7.0 0.00 0.00 0.00 87 1016.6
20260830131825 52 128 4.0 6.0 0.00 0.00 0.00 87 1016.5
20260830131326 53 103 3.0 7.0 0.00 0.00 0.00 87 1016.5
20260830130825 53 112 4.0 7.0 0.00 0.00 0.00 87 1016.6
20260830130325 53 127 4.0 7.0 0.00 0.00 0.00 87 1016.5
20260830125826 53 126 6.0 7.0 0.00 0.00 0.00 88 1016.5
20260830125325 53 98 4.0 6.0 0.00 0.00 0.00 88 1016.5
20260830124825 53 110 4.0 6.0 0.00 0.00 0.00 87 1016.4
20260830124326 53 103 4.0 6.0 0.00 0.00 0.00 87 1016.4
20260830123825 53 99 4.0 5.0 0.00 0.00 0.00 87 1016.4
20260830123325 53 123 3.0 4.0 0.00 0.00 0.00 87 1016.5
20260830122826 53 102 0.0 4.0 0.00 0.00 0.00 87 1016.4
20260830122325 53 107 1.0 4.0 0.00 0.00 0.00 87 1016.4
20260830121826 53 106 2.0 5.0 0.00 0.00 0.00 87 1016.4
20260830121326 53 120 3.0 5.0 0.00 0.00 0.00 87 1016.3
20260830120825 53 103 3.0 5.0 0.00 0.00 0.00 87 1016.3
20260830120325 53 116 4.0 5.0 0.00 0.00 0.00 87 1016.3
20260830115826 53 112 3.0 5.0 0.00 0.01 0.00 87 1016.3
20260830115325 53 102 3.0 4.0 0.00 0.01 0.00 87 1016.2
20260830114825 53 107 3.0 6.0 0.00 0.01 0.00 87 1016.2
20260830114326 53 99 3.0 6.0 0.00 0.01 0.00 87 1016.2
20260830113825 53 96 3.0 6.0 0.00 0.01 0.00 87 1016.2
20260830113325 53 110 2.0 8.0 0.00 0.01 0.00 87 1016.3
20260830112826 54 117 4.0 8.0 0.00 0.01 0.00 87 1016.3
20260830112325 54 116 2.0 8.0 0.00 0.01 0.00 87 1016.4
20260830111825 54 124 3.0 6.0 0.00 0.01 0.00 87 1016.4
20260830111326 54 109 4.0 6.0 0.00 0.01 0.00 87 1016.3
20260830110825 54 107 3.0 8.0 0.00 0.01 0.00 87 1016.2
20260830110325 54 135 3.0 8.0 0.00 0.01 0.00 87 1016.3
20260830105826 54 130 4.0 8.0 0.00 0.03 0.00 87 1016.4
20260830105325 54 109 4.0 6.0 0.00 0.03 0.00 87 1016.3
20260830104825 54 91 5.0 6.0 0.00 0.03 0.00 87 1016.3
20260830104326 54 95 4.0 6.0 0.00 0.03 0.00 87 1016.3
20260830103825 54 116 3.0 6.0 0.00 0.03 0.00 87 1016.4
20260830103325 54 109 4.0 6.0 0.00 0.03 0.00 87 1016.3
20260830102826 54 100 3.0 5.0 0.00 0.03 0.00 87 1016.4
20260830102325 54 110 3.0 5.0 0.00 0.03 0.00 87 1016.4
20260830101825 54 95 2.0 5.0 0.00 0.03 0.00 86 1016.4
20260830101326 54 96 2.0 5.0 0.00 0.03 0.00 86 1016.4
20260830100826 54 117 2.0 5.0 0.00 0.03 0.00 86 1016.3
20260830100325 54 110 2.0 4.0 0.00 0.03 0.00 86 1016.4
20260830095826 54 100 3.0 4.0 0.00 0.03 0.00 86 1016.4
20260830095325 54 151 2.0 4.0 0.00 0.03 0.00 86 1016.3
20260830094825 54 113 3.0 6.0 0.00 0.03 0.00 86 1016.3
20260830094326 54 102 3.0 6.0 0.00 0.03 0.00 86 1016.3
20260830093826 55 96 4.0 6.0 0.00 0.03 0.00 86 1016.3
20260830093325 55 106 4.0 6.0 0.00 0.03 0.00 86 1016.3
20260830092826 54 92 4.0 6.0 0.00 0.03 0.00 86 1016.4
20260830092325 54 92 3.0 6.0 0.00 0.03 0.00 86 1016.3
20260830091825 54 109 3.0 4.0 0.00 0.03 0.00 86 1016.3
20260830091326 54 102 2.0 6.0 0.00 0.03 0.00 86 1016.4
20260830090826 54 96 3.0 6.0 0.00 0.03 0.00 85 1016.4
20260830090326 55 100 3.0 6.0 0.00 0.03 0.00 85 1016.3
20260830085826 55 98 4.0 6.0 0.00 0.03 0.00 85 1016.3
20260830085326 55 98 4.0 6.0 0.00 0.03 0.00 85 1016.3
20260830084825 55 107 4.0 5.0 0.00 0.03 0.00 85 1016.3
20260830084326 55 105 3.0 5.0 0.00 0.03 0.00 85 1016.4
20260830083826 55 103 3.0 4.0 0.00 0.03 0.00 85 1016.4
20260830083325 55 102 2.0 4.0 0.00 0.03 0.00 85 1016.4
20260830082826 55 110 3.0 3.0 0.00 0.03 0.00 85 1016.5
20260830082325 56 102 2.0 6.0 0.00 0.03 0.00 85 1016.5
20260830081825 56 98 3.0 6.0 0.00 0.03 0.00 85 1016.5
20260830080825 56 102 3.0 5.0 0.00 0.03 0.00 85 1016.5
20260830080326 56 116 2.0 5.0 0.00 0.03 0.00 84 1016.4
20260830075830 56 99 2.0 5.0 0.00 0.03 0.00 84 1016.4
20260830075325 56 116 3.0 4.0 0.00 0.03 0.00 84 1016.4
20260830074825 56 105 2.0 4.0 0.00 0.03 0.00 84 1016.4
20260830074326 56 106 1.0 5.0 0.00 0.03 0.00 84 1016.5
20260830073825 56 100 3.0 5.0 0.00 0.03 0.00 84 1016.4
20260830073325 56 113 2.0 5.0 0.00 0.03 0.00 84 1016.5
20260830072826 57 110 2.0 6.0 0.00 0.03 0.00 84 1016.5
20260830072326 57 107 2.0 6.0 0.00 0.03 0.00 84 1016.4
20260830071825 57 114 5.0 6.0 0.00 0.03 0.00 84 1016.4
20260830071326 57 100 3.0 6.0 0.00 0.03 0.00 84 1016.4
20260830070826 57 121 2.0 6.0 0.00 0.03 0.00 84 1016.4
20260830070326 57 102 2.0 6.0 0.00 0.03 0.00 84 1016.4
20260830065826 57 103 3.0 5.0 0.00 0.03 0.00 83 1016.4
20260830065325 57 324 2.0 5.0 0.00 0.03 0.03 83 1016.5
20260830064825 57 106 2.0 6.0 0.00 0.03 0.03 83 1016.5
20260830063825 57 102 3.0 6.0 0.00 0.03 0.03 83 1016.4
20260830063325 57 105 5.0 5.0 0.00 0.03 0.03 83 1016.4
20260830062826 58 7 2.0 5.0 0.00 0.03 0.03 83 1016.4
20260830062325 58 124 0.0 4.0 0.00 0.03 0.03 82 1016.5
20260830061825 58 23 1.0 2.0 0.00 0.03 0.03 82 1016.5
20260830061326 58 329 0.0 5.0 0.00 0.03 0.03 82 1016.5
20260830060825 58 96 0.0 5.0 0.00 0.03 0.03 82 1016.5
20260830060326 58 78 0.0 5.0 0.00 0.03 0.03 82 1016.5
20260830055826 58 134 2.0 5.0 0.00 0.03 0.03 82 1016.6
20260830055325 58 99 3.0 5.0 0.00 0.03 0.03 82 1016.6
20260830054825 58 103 3.0 5.0 0.00 0.03 0.03 82 1016.6
20260830054326 58 109 1.0 5.0 0.00 0.03 0.03 81 1016.7
20260830053325 59 98 4.0 5.0 0.00 0.03 0.03 81 1016.7
20260830052326 59 127 1.0 4.0 0.00 0.03 0.03 81 1016.7
20260830051826 59 88 2.0 4.0 0.00 0.03 0.03 81 1016.7
20260830051327 59 99 2.0 4.0 0.00 0.03 0.03 81 1016.8
20260830050825 59 113 1.0 4.0 0.00 0.03 0.03 81 1016.8
20260830050326 59 99 1.0 4.0 0.00 0.03 0.03 81 1016.8
20260830045826 59 88 1.0 3.0 0.00 0.03 0.03 81 1016.9
20260830045326 59 84 2.0 3.0 0.00 0.03 0.03 80 1016.8
20260830044825 59 96 1.0 3.0 0.00 0.03 0.03 80 1016.9
20260830044326 59 336 2.0 3.0 0.00 0.03 0.03 80 1016.9
20260830043825 60 348 1.0 8.0 0.00 0.03 0.03 80 1016.9
20260830043325 60 15 1.0 8.0 0.00 0.03 0.03 80 1016.9
20260830042326 60 323 3.0 6.0 0.00 0.03 0.03 80 1016.8
20260830041826 60 8 3.0 5.0 0.00 0.03 0.03 80 1016.8
20260830041326 60 7 2.0 5.0 0.00 0.03 0.03 79 1016.7
20260830040825 60 144 1.0 3.0 0.00 0.03 0.03 79 1016.7
20260830040326 60 86 1.0 3.0 0.00 0.03 0.03 79 1016.7
20260830035826 60 144 0.0 5.0 0.00 0.03 0.03 78 1016.7
20260830035326 60 324 0.0 5.0 0.00 0.03 0.03 78 1016.7
20260830034825 61 323 1.0 5.0 0.00 0.03 0.03 78 1016.7
20260830034326 61 352 1.0 5.0 0.00 0.03 0.03 78 1016.6
20260830033826 61 323 1.0 5.0 0.00 0.03 0.03 77 1016.5
20260830033325 61 1 0.0 5.0 0.00 0.03 0.03 77 1016.5
20260830032826 62 330 1.0 6.0 0.00 0.03 0.03 76 1016.5
20260830032326 62 19 0.0 6.0 0.00 0.03 0.03 76 1016.5
20260830031826 62 35 1.0 6.0 0.00 0.03 0.03 76 1016.4
20260830031326 62 11 0.0 4.0 0.00 0.03 0.03 76 1016.5
20260830030825 63 329 1.0 4.0 0.00 0.03 0.03 75 1016.5
20260830030325 63 282 0.0 6.0 0.00 0.03 0.03 75 1016.5
20260830025826 63 21 1.0 6.0 0.00 0.03 0.03 75 1016.5
20260830025326 63 310 0.0 6.0 0.00 0.03 0.03 75 1016.4
20260830024825 64 15 0.0 10.0 0.00 0.03 0.03 75 1016.5
20260830024326 64 317 3.0 10.0 0.00 0.03 0.03 75 1016.4
20260830023826 64 330 6.0 10.0 0.00 0.03 0.03 75 1016.5
20260830023326 64 316 7.0 12.0 0.00 0.03 0.03 74 1016.5
20260830022826 64 324 7.0 12.0 0.00 0.03 0.03 74 1016.6